GLOBALSTAR M084

Last updated on Mon Sep 21 2026 00:03:12 GMT+0000 (Coordinated Universal Time)

1 38040U 11080A 26262.91209440 -.00000109 00000+0 -30975-4 0 9991 2 38040 51.9995 88.9047 0000564 75.1929 71.9912 12.62264074680725
UTC large
Height (km)
Speed (km/s)
/
Latitude / Longitude
Inclination (degrees)
Orbital Period (minutes)
Azimuth
Elevation
Range (km)
Doppler Factor

Next 0 passes for location: London (51.5072 / 0.1276)

No passes found over London.
GLOBALSTAR M084